{"data":{"norad_id":65713,"intl_designator":"2025-214B","name":"GEESAT-6 01","alt_names":[],"object_type":"PAYLOAD","status":"ACTIVE","operator":null,"country":"PRC","launch_date":"2025-09-24","launch_site_code":"YSLA","launch_vehicle":null,"mission":null,"orbit_class":"UNKNOWN","rcs_meters":null,"size_class":null,"mass_kg":null,"dimensions":null,"purposes":[],"wikipedia_slug":null,"has_3d_model":false,"image_url":null,"decayed_at":null,"tle_current":{"epoch":"2026-05-25T03:39:11.107296Z","epoch_age_seconds":58295,"freshness":"FRESH","line1":"1 65713U 25214B   26145.15221189  .00001326  00000+0  18814-3 0  9999","line2":"2 65713  49.9872  55.3047 0012033 138.6670 221.5181 14.83182323 36089","mean_motion":14.83182323,"eccentricity":0.0012033,"inclination_deg":49.9872,"raan_deg":55.3047,"arg_perigee_deg":138.667,"mean_anomaly_deg":221.5181,"bstar":0.00018814,"rev_number":3608,"period_min":97.088535756504,"perigee_km":610.87704004961,"apogee_km":627.71706484023,"semimajor_km":6997.4340524449,"source":"CELESTRAK","updated_at":"2026-05-25T13:38:05.626405Z"}}}